GSAT-16

Last updated on Mon Feb 10 2025 00:02:44 GMT+0000 (Coordinated Universal Time)

1 40332U 14078A 25040.55240819 .00000075 00000+0 00000+0 0 9997 2 40332 0.0791 269.6856 0002802 195.0244 289.0352 1.00272952 37164
UTC large
Height (km)
Speed (km/s)
/
Latitude / Longitude
Inclination (degrees)
Orbital Period (minutes)
Azimuth
Elevation
Range (km)
Doppler Factor

Next 0 passes for location: London (51.5072 / 0.1276)

Sorry there are no passes over London.